sat.trackr.live / text

‹ back to catalog

SHIJIAN-6 02A (SJ-6 02A)

NORAD 29505 · 2006-046A

PAYLOAD ACTIVE UNKNOWN

§ Identity

Operator
Country
PRC
Launch date
2006-10-23
Launch site
TAISC
Launch vehicle
Mass (kg)
RCS (m²)
1.16

Purposes: science

External: N2YO · Heavens-Above · Gunter

§ Orbital elements

Epoch: 2026-05-25T04:47:53.328192Z

Period
94.95 min
Inclination
97.6375°
Eccentricity
0.0002593
Mean motion
15.16629714 rev/d
Perigee alt
514.2 km
Apogee alt
517.8 km
Semi-major
6,894.2 km
B*
2.7703e-4
RAAN
186.0976°
Arg perigee
187.2213°
Mean anomaly
172.8983°
Rev number
6,878

§ Raw data

SHIJIAN-6 02A (SJ-6 02A)1 29505U 06046A   26145.19992278  .00005348  00000+0  27703-3 0  99932 29505  97.6375 186.0976 0002593 187.2213 172.8983 15.16629714 68789

JSON: /api/v1/satellites/29505 · /tle

For live sub-satellite position, see the globe view (requires WebGL).

§ Visibility from observer

Set your observer location to see the next 7 days of passes ≥ 10°. The values pass through the URL so the page stays shareable.

No JS? Fill the form by hand. The geolocation button needs JavaScript.

§ Radio — SatNOGS DB

ModeDescriptionDownlinkUplink
BPSK S-band telemetry 2.265 GHz

1 transmitter · refreshed weekly from db.satnogs.org